AAL1900 MBPV-KMIA

Flight info

Callsign AAL1900
Flight time 1h 46m
Altitude 40000
Route MICAS4 MICAS DCT FODED Y308 MADIZ VIICE2
Aircraft B738/M-SDE2E3FGHIRWXY/LB1

Departure

Time 2026-04-21 17:17
Airport Providenciales International Airport (MBPV)

Arrival

Time 2026-04-21 19:04
Airport Miami International Airport (KMIA)
Time Latitude Longitude Altitude Speed Heading
2026-04-21 17:06 21.77559 -72.27282 23 ft 0 kts
2026-04-21 17:12 21.77556 -72.27282 23 ft 2 kts
2026-04-21 17:12 21.77540 -72.27283 23 ft 3 kts
2026-04-21 17:12 21.77530 -72.27283 23 ft 0 kts
2026-04-21 17:14 21.77531 -72.27283 23 ft 0 kts
2026-04-21 17:14 21.77548 -72.27273 23 ft 8 kts 64°
2026-04-21 17:14 21.77509 -72.27259 23 ft 7 kts 200°
2026-04-21 17:14 21.77476 -72.27268 23 ft 8 kts 184°
2026-04-21 17:15 21.77401 -72.27287 23 ft 10 kts 249°
2026-04-21 17:15 21.77398 -72.27363 23 ft 16 kts 271°
2026-04-21 17:15 21.77406 -72.27492 23 ft 16 kts 278°
2026-04-21 17:15 21.77428 -72.27597 23 ft 7 kts 277°
2026-04-21 17:16 21.77408 -72.27605 23 ft 8 kts 136°
2026-04-21 17:16 21.77409 -72.27560 23 ft 0 kts 90°
2026-04-21 17:16 21.77409 -72.27557 23 ft 4 kts 90°
2026-04-21 17:16 21.77405 -72.27411 23 ft 48 kts 92°
2026-04-21 17:17 21.77372 -72.26748 23 ft 126 kts 93°
2026-04-21 17:17 21.77301 -72.25598 262 ft 169 kts 94°
2026-04-21 17:17 21.77198 -72.24294 1089 ft 181 kts 94°
2026-04-21 17:17 21.77174 -72.22935 1998 ft 185 kts 75°
2026-04-21 17:18 21.77897 -72.21702 2335 ft 213 kts 39°
2026-04-21 17:18 21.79244 -72.21048 2775 ft 216 kts 13°
2026-04-21 17:18 21.80714 -72.20838 3550 ft 224 kts
2026-04-21 17:18 21.82303 -72.20797 4466 ft 227 kts 356°
2026-04-21 17:19 21.83874 -72.21242 5121 ft 245 kts 337°
2026-04-21 17:19 21.85414 -72.22178 5738 ft 259 kts 327°
2026-04-21 17:19 21.86909 -72.23347 6742 ft 267 kts 323°
2026-04-21 17:19 21.88390 -72.24545 7748 ft 268 kts 324°
2026-04-21 17:20 21.89907 -72.25757 8410 ft 282 kts 324°
2026-04-21 17:20 21.91470 -72.27013 9662 ft 276 kts 324°
2026-04-21 17:20 21.93005 -72.28244 11243 ft 267 kts 323°
2026-04-21 17:20 21.94455 -72.29415 12365 ft 260 kts 324°
2026-04-21 17:21 21.95913 -72.30586 13088 ft 265 kts 323°
2026-04-21 17:21 21.97412 -72.31784 13555 ft 270 kts 321°
2026-04-21 17:21 21.98953 -72.33044 14049 ft 290 kts 322°
2026-04-21 17:21 22.00602 -72.34386 14406 ft 305 kts 322°
2026-04-21 17:22 22.01774 -72.35304 14996 ft 324 kts 322°
2026-04-21 17:22 22.04394 -72.37431 16104 ft 381 kts 322°
2026-04-21 17:22 22.06640 -72.39234 16424 ft 420 kts 320°
2026-04-21 17:22 22.08955 -72.41202 16695 ft 421 kts 321°
2026-04-21 17:23 22.11212 -72.43108 18550 ft 400 kts 316°
2026-04-21 17:23 22.13123 -72.45184 20542 ft 377 kts 308°
2026-04-21 17:23 22.14682 -72.47399 21915 ft 369 kts 301°
2026-04-21 17:23 22.16046 -72.49752 22919 ft 374 kts 297°
2026-04-21 17:24 22.17310 -72.52199 23439 ft 374 kts 297°
2026-04-21 17:24 22.18585 -72.54673 23794 ft 380 kts 296°
2026-04-21 17:24 22.19890 -72.57194 23929 ft 391 kts 296°
2026-04-21 17:24 22.21235 -72.59788 24043 ft 401 kts 297°
2026-04-21 17:25 22.22600 -72.62406 24165 ft 409 kts 297°
2026-04-21 17:25 22.24005 -72.65103 24353 ft 416 kts 296°
2026-04-21 17:25 22.25444 -72.67874 24648 ft 419 kts 297°
2026-04-21 17:25 22.26875 -72.70638 24915 ft 423 kts 297°
2026-04-21 17:26 22.28298 -72.73375 25246 ft 425 kts 297°
2026-04-21 17:26 22.29758 -72.76158 25584 ft 425 kts 297°
2026-04-21 17:26 22.31228 -72.78925 25994 ft 425 kts 297°
2026-04-21 17:26 22.32682 -72.81707 26321 ft 426 kts 297°
2026-04-21 17:27 22.34133 -72.84454 27170 ft 411 kts 297°
2026-04-21 17:27 22.35476 -72.87053 28637 ft 383 kts 296°
2026-04-21 17:27 22.36762 -72.89504 29699 ft 369 kts 296°
2026-04-21 17:27 22.38027 -72.91920 30159 ft 371 kts 296°
2026-04-21 17:28 22.39308 -72.94371 30283 ft 379 kts 296°
2026-04-21 17:28 22.40615 -72.96875 30490 ft 384 kts 296°
2026-04-21 17:28 22.41934 -72.99403 30741 ft 388 kts 296°
2026-04-21 17:28 22.43267 -73.01958 30997 ft 391 kts 296°
2026-04-21 17:29 22.44609 -73.04532 31247 ft 394 kts 296°
2026-04-21 17:29 22.45954 -73.07122 31497 ft 397 kts 296°
2026-04-21 17:29 22.47316 -73.09734 31750 ft 399 kts 296°
2026-04-21 17:29 22.48683 -73.12359 32001 ft 401 kts 296°
2026-04-21 17:30 22.50052 -73.14990 32251 ft 403 kts 296°
2026-04-21 17:30 22.51430 -73.17639 32502 ft 404 kts 296°
2026-04-21 17:30 22.52809 -73.20293 32752 ft 406 kts 296°
2026-04-21 17:30 22.54196 -73.22962 33004 ft 406 kts 296°
2026-04-21 17:31 22.55580 -73.25628 33249 ft 407 kts 296°
2026-04-21 17:31 22.56966 -73.28299 33498 ft 407 kts 296°
2026-04-21 17:31 22.58340 -73.30948 33755 ft 406 kts 296°
2026-04-21 17:31 22.59729 -73.33628 34065 ft 404 kts 296°
2026-04-21 17:32 22.60635 -73.35377 34268 ft 403 kts 296°
2026-04-21 17:32 22.62344 -73.38677 34521 ft 404 kts 296°
2026-04-21 17:32 22.63717 -73.41330 34711 ft 404 kts 296°
2026-04-21 17:32 22.65107 -73.44017 34969 ft 403 kts 296°
2026-04-21 17:33 22.66474 -73.46662 35236 ft 402 kts 296°
2026-04-21 17:33 22.67836 -73.49298 35458 ft 402 kts 296°
2026-04-21 17:33 22.69200 -73.51940 35676 ft 401 kts 296°
2026-04-21 17:33 22.70558 -73.54574 35874 ft 401 kts 296°
2026-04-21 17:34 22.71905 -73.57183 36055 ft 402 kts 296°
2026-04-21 17:34 22.73269 -73.59826 36291 ft 401 kts 296°
2026-04-21 17:34 22.74626 -73.62460 36502 ft 400 kts 296°
2026-04-21 17:34 22.76003 -73.65132 36671 ft 401 kts 296°
2026-04-21 17:35 22.77344 -73.67736 36892 ft 400 kts 296°
2026-04-21 17:35 22.78699 -73.70369 37108 ft 400 kts 296°
2026-04-21 17:35 22.80051 -73.72997 37293 ft 400 kts 296°
2026-04-21 17:35 22.81405 -73.75631 37444 ft 400 kts 296°
2026-04-21 17:36 22.82760 -73.78269 37654 ft 400 kts 296°
2026-04-21 17:36 22.84113 -73.80903 37843 ft 399 kts 296°
2026-04-21 17:36 22.85464 -73.83535 38002 ft 400 kts 296°
2026-04-21 17:36 22.86813 -73.86165 38192 ft 399 kts 296°
2026-04-21 17:37 22.88157 -73.88786 38507 ft 395 kts 296°
2026-04-21 17:37 22.89485 -73.91377 38841 ft 392 kts 296°
2026-04-21 17:37 22.90378 -73.93119 39040 ft 390 kts 296°
2026-04-21 17:37 22.92120 -73.96521 39394 ft 388 kts 296°
2026-04-21 17:38 22.93429 -73.99081 39544 ft 389 kts 296°
2026-04-21 17:38 22.94740 -74.01643 39755 ft 388 kts 296°
2026-04-21 17:38 22.96049 -74.04205 39953 ft 387 kts 296°
2026-04-21 17:38 22.97358 -74.06767 40052 ft 389 kts 296°
2026-04-21 17:39 22.99999 -74.11939 40156 ft 393 kts 296°
2026-04-21 17:39 23.02666 -74.17169 40163 ft 398 kts 296°
2026-04-21 17:40 23.05363 -74.22462 40165 ft 401 kts 296°
2026-04-21 17:40 23.08062 -74.27767 40167 ft 401 kts 296°
2026-04-21 17:41 23.10755 -74.33064 40169 ft 400 kts 296°
2026-04-21 17:41 23.13443 -74.38357 40170 ft 401 kts 296°
2026-04-21 17:42 23.15680 -74.42767 40172 ft 401 kts 296°
2026-04-21 17:42 23.18386 -74.48106 40173 ft 401 kts 296°
2026-04-21 17:43 23.21072 -74.53410 40176 ft 400 kts 296°
2026-04-21 17:43 23.23734 -74.58672 40180 ft 400 kts 296°
2026-04-21 17:44 23.26422 -74.63968 40181 ft 400 kts 296°
2026-04-21 17:44 23.29098 -74.69267 40182 ft 400 kts 296°
2026-04-21 17:45 23.31767 -74.74568 40182 ft 400 kts 296°
2026-04-21 17:45 23.34437 -74.79877 40183 ft 400 kts 296°
2026-04-21 17:46 23.37115 -74.85205 40183 ft 401 kts 296°
2026-04-21 17:46 23.39575 -74.90624 40185 ft 397 kts 288°
2026-04-21 17:47 23.41362 -74.96314 40184 ft 397 kts 287°
2026-04-21 17:47 23.43103 -75.02000 40184 ft 396 kts 287°
2026-04-21 17:48 23.44830 -75.07664 40187 ft 396 kts 287°
2026-04-21 17:48 23.46563 -75.13369 40193 ft 397 kts 287°
2026-04-21 17:49 23.48295 -75.19086 40193 ft 397 kts 287°
2026-04-21 17:49 23.50022 -75.24797 40193 ft 396 kts 287°
2026-04-21 17:50 23.51758 -75.30486 40193 ft 396 kts 287°
2026-04-21 17:50 23.53479 -75.36145 40193 ft 396 kts 287°
2026-04-21 17:51 23.55216 -75.41877 40193 ft 396 kts 287°
2026-04-21 17:51 23.56927 -75.47539 40194 ft 396 kts 287°
2026-04-21 17:52 23.58644 -75.53231 40195 ft 395 kts 287°
2026-04-21 17:52 23.60354 -75.58913 40195 ft 395 kts 287°
2026-04-21 17:53 23.62064 -75.64606 40195 ft 395 kts 287°
2026-04-21 17:53 23.63770 -75.70294 40196 ft 395 kts 287°
2026-04-21 17:54 23.65474 -75.75986 40196 ft 395 kts 287°
2026-04-21 17:54 23.67177 -75.81681 40197 ft 394 kts 287°
2026-04-21 17:55 23.68874 -75.87364 40197 ft 394 kts 287°
2026-04-21 17:55 23.70565 -75.93037 40197 ft 394 kts 287°
2026-04-21 17:56 23.72257 -75.98721 40200 ft 394 kts 287°
2026-04-21 17:56 23.73951 -76.04424 40202 ft 395 kts 287°
2026-04-21 17:57 23.75645 -76.10132 40203 ft 395 kts 287°
2026-04-21 17:57 23.77336 -76.15840 40204 ft 395 kts 287°
2026-04-21 17:58 23.79022 -76.21538 40203 ft 395 kts 287°
2026-04-21 17:58 23.80697 -76.27207 40203 ft 395 kts 287°
2026-04-21 17:59 23.82391 -76.32949 40203 ft 395 kts 287°
2026-04-21 17:59 23.84060 -76.38617 40204 ft 395 kts 287°
2026-04-21 18:00 23.85738 -76.44323 40206 ft 395 kts 287°
2026-04-21 18:00 23.87414 -76.50029 40208 ft 394 kts 287°
2026-04-21 18:01 23.89085 -76.55731 40210 ft 394 kts 287°
2026-04-21 18:01 23.90758 -76.61446 40203 ft 394 kts 287°
2026-04-21 18:02 23.92427 -76.67153 40205 ft 394 kts 286°
2026-04-21 18:02 23.94094 -76.72867 40206 ft 394 kts 286°
2026-04-21 18:03 23.95758 -76.78577 40208 ft 394 kts 286°
2026-04-21 18:03 23.97422 -76.84294 40210 ft 394 kts 286°
2026-04-21 18:04 23.99081 -76.90007 40212 ft 394 kts 286°
2026-04-21 18:04 24.00750 -76.95760 40214 ft 394 kts 286°
2026-04-21 18:05 24.02395 -77.01439 40216 ft 394 kts 286°
2026-04-21 18:05 24.04058 -77.07190 40218 ft 394 kts 286°
2026-04-21 18:06 24.05708 -77.12903 40220 ft 394 kts 286°
2026-04-21 18:06 24.07357 -77.18625 40222 ft 394 kts 286°
2026-04-21 18:07 24.08992 -77.24307 40229 ft 394 kts 286°
2026-04-21 18:07 24.10637 -77.30028 40231 ft 394 kts 286°
2026-04-21 18:08 24.12288 -77.35784 40231 ft 393 kts 286°
2026-04-21 18:08 24.14008 -77.41388 40232 ft 391 kts 291°
2026-04-21 18:09 24.16521 -77.46696 40232 ft 394 kts 296°
2026-04-21 18:09 24.19162 -77.51943 40240 ft 393 kts 295°
2026-04-21 18:10 24.21793 -77.57184 40241 ft 392 kts 295°
2026-04-21 18:10 24.24422 -77.62432 40241 ft 393 kts 295°
2026-04-21 18:11 24.27045 -77.67678 40241 ft 392 kts 295°
2026-04-21 18:11 24.29665 -77.72924 40242 ft 392 kts 295°
2026-04-21 18:12 24.32304 -77.78212 40242 ft 393 kts 295°
2026-04-21 18:12 24.34935 -77.83453 40240 ft 392 kts 295°
2026-04-21 18:13 24.37549 -77.88676 40239 ft 392 kts 295°
2026-04-21 18:13 24.40173 -77.93931 40239 ft 392 kts 295°
2026-04-21 18:14 24.44099 -78.01813 40239 ft 392 kts 295°
2026-04-21 18:15 24.46718 -78.07081 40238 ft 392 kts 295°
2026-04-21 18:15 24.49329 -78.12339 40239 ft 393 kts 295°
2026-04-21 18:16 24.51944 -78.17614 40238 ft 393 kts 295°
2026-04-21 18:16 24.54555 -78.22886 40238 ft 393 kts 295°
2026-04-21 18:17 24.57163 -78.28157 40238 ft 393 kts 295°
2026-04-21 18:17 24.59768 -78.33427 40238 ft 393 kts 295°
2026-04-21 18:18 24.62379 -78.38717 40238 ft 394 kts 295°
2026-04-21 18:18 24.64997 -78.44007 40238 ft 394 kts 295°
2026-04-21 18:19 24.67613 -78.49305 40237 ft 394 kts 295°
2026-04-21 18:19 24.70216 -78.54601 40225 ft 394 kts 295°
2026-04-21 18:19 24.71514 -78.57247 39920 ft 390 kts 295°
2026-04-21 18:20 24.72792 -78.59854 39497 ft 384 kts 295°
2026-04-21 18:20 24.74053 -78.62428 38981 ft 381 kts 295°
2026-04-21 18:20 24.75307 -78.64989 38447 ft 379 kts 295°
2026-04-21 18:20 24.76555 -78.67538 37895 ft 377 kts 295°
2026-04-21 18:21 24.77797 -78.70073 37337 ft 376 kts 295°
2026-04-21 18:21 24.79043 -78.72594 36773 ft 375 kts 296°
2026-04-21 18:21 24.79939 -78.74222 36391 ft 376 kts 298°
2026-04-21 18:21 24.81376 -78.76625 35806 ft 376 kts 300°
2026-04-21 18:22 24.82848 -78.79006 35198 ft 376 kts 300°
2026-04-21 18:22 24.84795 -78.82174 34388 ft 383 kts 300°
2026-04-21 18:22 24.85815 -78.83829 33956 ft 391 kts 300°
2026-04-21 18:22 24.87351 -78.86342 33292 ft 400 kts 300°
2026-04-21 18:23 24.88912 -78.88911 32589 ft 407 kts 300°
2026-04-21 18:23 24.90500 -78.91533 31865 ft 413 kts 301°
2026-04-21 18:23 24.92100 -78.94184 31122 ft 419 kts 301°
2026-04-21 18:23 24.94249 -78.97752 30084 ft 425 kts 301°
2026-04-21 18:24 24.95354 -78.99588 29559 ft 428 kts 301°
2026-04-21 18:24 24.97007 -79.02338 28770 ft 433 kts 302°
2026-04-21 18:24 24.98678 -79.05121 28028 ft 436 kts 302°
2026-04-21 18:24 25.00355 -79.07913 27330 ft 439 kts 302°
2026-04-21 18:25 25.02036 -79.10712 26696 ft 433 kts 302°
2026-04-21 18:25 25.03690 -79.13457 26074 ft 426 kts 302°
2026-04-21 18:25 25.05299 -79.16127 25470 ft 421 kts 302°
2026-04-21 18:25 25.06910 -79.18808 24858 ft 417 kts 302°
2026-04-21 18:26 25.08501 -79.21462 24241 ft 413 kts 302°
2026-04-21 18:26 25.10080 -79.24098 23612 ft 409 kts 302°
2026-04-21 18:26 25.11641 -79.26710 22988 ft 406 kts 302°
2026-04-21 18:26 25.13181 -79.29287 22702 ft 395 kts 302°
2026-04-21 18:27 25.14663 -79.31771 22542 ft 381 kts 302°
2026-04-21 18:27 25.16097 -79.34174 22351 ft 370 kts 302°
2026-04-21 18:27 25.17494 -79.36515 22166 ft 359 kts 302°
2026-04-21 18:27 25.18852 -79.38789 21986 ft 349 kts 302°
2026-04-21 18:28 25.20177 -79.41012 21787 ft 347 kts 302°
2026-04-21 18:28 25.21522 -79.43256 21365 ft 354 kts 302°
2026-04-21 18:28 25.22888 -79.45535 20928 ft 358 kts 302°
2026-04-21 18:28 25.24255 -79.47821 20492 ft 355 kts 302°
2026-04-21 18:29 25.25610 -79.50094 20071 ft 353 kts 302°
2026-04-21 18:29 25.26954 -79.52350 19641 ft 350 kts 302°
2026-04-21 18:29 25.28287 -79.54592 19222 ft 347 kts 302°
2026-04-21 18:29 25.29608 -79.56813 18804 ft 345 kts 302°
2026-04-21 18:30 25.30912 -79.59011 18391 ft 342 kts 302°
2026-04-21 18:30 25.32218 -79.61212 17979 ft 340 kts 303°
2026-04-21 18:30 25.33506 -79.63385 17573 ft 337 kts 303°
2026-04-21 18:30 25.34800 -79.65569 16948 ft 341 kts 303°
2026-04-21 18:31 25.36100 -79.67762 16502 ft 340 kts 303°
2026-04-21 18:31 25.37393 -79.69942 16078 ft 338 kts 303°
2026-04-21 18:31 25.38673 -79.72104 15669 ft 336 kts 303°
2026-04-21 18:31 25.39985 -79.74229 15265 ft 333 kts 305°
2026-04-21 18:32 25.41335 -79.76307 14865 ft 331 kts 306°
2026-04-21 18:32 25.42670 -79.78366 14471 ft 329 kts 305°
2026-04-21 18:32 25.44000 -79.80428 14076 ft 327 kts 305°
2026-04-21 18:32 25.45315 -79.82473 13687 ft 325 kts 305°
2026-04-21 18:33 25.46604 -79.84481 13302 ft 323 kts 305°
2026-04-21 18:33 25.47902 -79.86506 12913 ft 322 kts 305°
2026-04-21 18:33 25.49216 -79.88549 12440 ft 323 kts 306°
2026-04-21 18:33 25.50499 -79.90550 11981 ft 323 kts 306°
2026-04-21 18:34 25.51791 -79.92567 11713 ft 318 kts 306°
2026-04-21 18:34 25.53052 -79.94539 11551 ft 309 kts 306°
2026-04-21 18:34 25.54280 -79.96461 11385 ft 302 kts 306°
2026-04-21 18:34 25.55475 -79.98331 11224 ft 295 kts 306°
2026-04-21 18:35 25.56270 -79.99576 11117 ft 290 kts 306°
2026-04-21 18:35 25.57790 -80.01956 10911 ft 282 kts 306°
2026-04-21 18:35 25.58913 -80.03714 10690 ft 278 kts 306°
2026-04-21 18:35 25.60032 -80.05464 10407 ft 279 kts 306°
2026-04-21 18:36 25.61160 -80.07233 10116 ft 284 kts 306°
2026-04-21 18:36 25.62311 -80.09037 9813 ft 289 kts 306°
2026-04-21 18:36 25.63482 -80.10873 9504 ft 293 kts 306°
2026-04-21 18:36 25.64659 -80.12720 9193 ft 292 kts 306°
2026-04-21 18:37 25.65739 -80.14627 8896 ft 293 kts 300°
2026-04-21 18:37 25.66637 -80.16655 8627 ft 293 kts 296°
2026-04-21 18:37 25.67486 -80.18699 8359 ft 292 kts 296°
2026-04-21 18:37 25.68331 -80.20741 8093 ft 291 kts 296°
2026-04-21 18:38 25.69176 -80.22751 7789 ft 291 kts 297°
2026-04-21 18:38 25.70035 -80.24774 7506 ft 289 kts 297°
2026-04-21 18:38 25.70810 -80.26824 7218 ft 290 kts 289°
2026-04-21 18:38 25.71177 -80.29038 6940 ft 292 kts 277°
2026-04-21 18:39 25.71197 -80.31271 6664 ft 291 kts 269°
2026-04-21 18:39 25.71054 -80.33519 6339 ft 291 kts 267°
2026-04-21 18:39 25.70907 -80.35790 6008 ft 291 kts 267°
2026-04-21 18:39 25.70781 -80.37999 5699 ft 291 kts 268°
2026-04-21 18:40 25.70665 -80.40239 5374 ft 291 kts 269°
2026-04-21 18:40 25.70554 -80.42476 5053 ft 290 kts 268°
2026-04-21 18:40 25.70470 -80.43986 4840 ft 290 kts 268°
2026-04-21 18:40 25.70259 -80.46934 4425 ft 289 kts 267°
2026-04-21 18:41 25.70107 -80.49152 4142 ft 288 kts 267°
2026-04-21 18:41 25.69958 -80.51347 3914 ft 284 kts 267°
2026-04-21 18:41 25.69804 -80.53503 3682 ft 276 kts 268°
2026-04-21 18:41 25.69993 -80.55552 3422 ft 261 kts 296°
2026-04-21 18:42 25.71061 -80.57048 3189 ft 241 kts 332°
2026-04-21 18:42 25.72567 -80.57696 3002 ft 227 kts 352°
2026-04-21 18:42 25.74079 -80.57973 2954 ft 214 kts
2026-04-21 18:42 25.75390 -80.57412 2953 ft 200 kts 39°
2026-04-21 18:43 25.76436 -80.56408 2977 ft 198 kts 46°
2026-04-21 18:43 25.77270 -80.55205 2971 ft 198 kts 65°
2026-04-21 18:43 25.77603 -80.53732 2990 ft 198 kts 81°
2026-04-21 18:43 25.77737 -80.52200 2999 ft 201 kts 84°
2026-04-21 18:44 25.77811 -80.50645 2994 ft 202 kts 84°
2026-04-21 18:44 25.77878 -80.49096 3011 ft 198 kts 84°
2026-04-21 18:44 25.77942 -80.47577 2900 ft 195 kts 85°
2026-04-21 18:44 25.78005 -80.46084 2632 ft 190 kts 85°
2026-04-21 18:45 25.78064 -80.44661 2371 ft 179 kts 85°
2026-04-21 18:45 25.78119 -80.43330 2149 ft 167 kts 85°
2026-04-21 18:45 25.78171 -80.42068 1927 ft 161 kts 85°
2026-04-21 18:45 25.78222 -80.40838 1717 ft 159 kts 84°
2026-04-21 18:46 25.78272 -80.39616 1506 ft 156 kts 84°
2026-04-21 18:46 25.78321 -80.38444 1297 ft 148 kts 84°
2026-04-21 18:46 25.78367 -80.37339 1132 ft 139 kts 84°
2026-04-21 18:46 25.78411 -80.36270 935 ft 138 kts 84°
2026-04-21 18:47 25.78451 -80.35228 788 ft 134 kts 85°
2026-04-21 18:47 25.78484 -80.34199 596 ft 133 kts 84°
2026-04-21 18:47 25.78542 -80.33179 422 ft 131 kts 85°
2026-04-21 18:47 25.78584 -80.32167 224 ft 133 kts 87°
2026-04-21 18:48 25.78624 -80.31147 65 ft 132 kts 87°
2026-04-21 18:48 25.78651 -80.30157 22 ft 119 kts 85°
2026-04-21 18:48 25.78694 -80.29226 168 ft 136 kts 85°
2026-04-21 18:48 25.78749 -80.28077 798 ft 159 kts 87°
2026-04-21 18:49 25.78695 -80.26778 1520 ft 184 kts 96°
2026-04-21 18:49 25.78296 -80.25326 2375 ft 202 kts 105°
2026-04-21 18:49 25.77979 -80.24304 2772 ft 223 kts 105°
2026-04-21 18:49 25.77206 -80.21842 2976 ft 268 kts 105°
2026-04-21 18:50 25.76622 -80.19940 2906 ft 255 kts 106°
2026-04-21 18:50 25.75924 -80.18166 2981 ft 248 kts 112°
2026-04-21 18:50 25.75129 -80.16468 2987 ft 248 kts 113°
2026-04-21 18:50 25.74340 -80.14783 2993 ft 250 kts 113°
2026-04-21 18:51 25.73536 -80.13075 2996 ft 250 kts 113°
2026-04-21 18:51 25.72707 -80.11380 2990 ft 252 kts 120°
2026-04-21 18:51 25.71323 -80.10145 3080 ft 271 kts 154°
2026-04-21 18:51 25.69412 -80.09996 3766 ft 285 kts 186°
2026-04-21 18:52 25.67600 -80.10913 3921 ft 292 kts 218°
2026-04-21 18:52 25.66423 -80.12727 3989 ft 292 kts 248°
2026-04-21 18:52 25.65952 -80.14906 4022 ft 290 kts 261°
2026-04-21 18:52 25.65636 -80.17109 4014 ft 289 kts 262°
2026-04-21 18:53 25.65306 -80.19308 4004 ft 289 kts 262°
2026-04-21 18:53 25.64976 -80.21497 3997 ft 289 kts 262°
2026-04-21 18:53 25.64644 -80.23699 3996 ft 289 kts 262°
2026-04-21 18:53 25.64319 -80.25888 3997 ft 289 kts 262°
2026-04-21 18:54 25.63992 -80.28085 3997 ft 289 kts 262°
2026-04-21 18:54 25.63664 -80.30285 3993 ft 291 kts 262°
2026-04-21 18:54 25.63333 -80.32521 3995 ft 295 kts 263°
2026-04-21 18:54 25.63038 -80.34753 3989 ft 291 kts 263°
2026-04-21 18:55 25.62847 -80.36225 3988 ft 291 kts 263°
2026-04-21 18:55 25.62456 -80.39207 3976 ft 291 kts 263°
2026-04-21 18:55 25.62163 -80.41417 3985 ft 295 kts 263°
2026-04-21 18:55 25.61868 -80.43658 3981 ft 293 kts 263°
2026-04-21 18:56 25.61575 -80.45888 3979 ft 291 kts 263°
2026-04-21 18:56 25.61285 -80.48104 3981 ft 290 kts 264°
2026-04-21 18:56 25.61431 -80.50312 3949 ft 290 kts 292°
2026-04-21 18:56 25.62517 -80.52116 3863 ft 279 kts 323°
2026-04-21 18:57 25.64193 -80.53049 3679 ft 264 kts 349°
2026-04-21 18:57 25.65963 -80.53460 3482 ft 257 kts 353°
2026-04-21 18:57 25.67701 -80.53854 3276 ft 252 kts 353°
2026-04-21 18:57 25.69394 -80.54250 3070 ft 245 kts 353°
2026-04-21 18:58 25.71035 -80.54639 2975 ft 235 kts 353°
2026-04-21 18:58 25.72590 -80.55015 2965 ft 224 kts 353°
2026-04-21 18:58 25.74074 -80.55028 2922 ft 207 kts 25°
2026-04-21 18:58 25.75175 -80.54113 2959 ft 196 kts 50°
2026-04-21 18:59 25.76022 -80.52927 2981 ft 197 kts 53°
2026-04-21 18:59 25.76865 -80.51728 2982 ft 198 kts 53°
2026-04-21 18:59 25.77576 -80.50427 3015 ft 198 kts 67°
2026-04-21 18:59 25.77930 -80.48956 3034 ft 198 kts 81°
2026-04-21 19:00 25.77998 -80.47419 2855 ft 202 kts 86°
2026-04-21 19:00 25.78032 -80.45875 2594 ft 197 kts 85°
2026-04-21 19:00 25.78083 -80.44375 2331 ft 191 kts 85°
2026-04-21 19:00 25.78138 -80.42923 2077 ft 185 kts 85°
2026-04-21 19:01 25.78193 -80.41540 1843 ft 174 kts 85°
2026-04-21 19:01 25.78247 -80.40248 1612 ft 161 kts 84°
2026-04-21 19:01 25.78295 -80.39083 1415 ft 147 kts 84°
2026-04-21 19:01 25.78341 -80.37967 1221 ft 138 kts 84°
2026-04-21 19:02 25.78384 -80.36925 1035 ft 136 kts 84°
2026-04-21 19:02 25.78418 -80.35872 890 ft 134 kts 86°
2026-04-21 19:02 25.78451 -80.34850 703 ft 135 kts 83°
2026-04-21 19:02 25.78513 -80.33816 544 ft 135 kts 85°
2026-04-21 19:03 25.78561 -80.32771 372 ft 136 kts 86°
2026-04-21 19:03 25.78604 -80.31705 166 ft 138 kts 87°
2026-04-21 19:03 25.78631 -80.31001 54 ft 137 kts 87°
2026-04-21 19:03 25.78680 -80.29777 16 ft 71 kts 88°
2026-04-21 19:04 25.78692 -80.29485 16 ft 51 kts 86°
2026-04-21 19:04 25.78749 -80.29225 16 ft 19 kts 43°
2026-04-21 19:04 25.78821 -80.29135 16 ft 12 kts 79°
2026-04-21 19:04 25.78826 -80.29083 16 ft 10 kts 83°
2026-04-21 19:05 25.78836 -80.29021 16 ft 6 kts 79°
2026-04-21 19:05 25.78854 -80.28923 16 ft 19 kts 79°
2026-04-21 19:05 25.78866 -80.28792 16 ft 15 kts 94°
2026-04-21 19:05 25.78891 -80.28692 16 ft 10 kts 16°
2026-04-21 19:06 25.78952 -80.28693 16 ft 15 kts 357°
2026-04-21 19:06 25.79035 -80.28693 16 ft 7 kts 358°
2026-04-21 19:06 25.79062 -80.28695 16 ft 0 kts 353°
2026-04-21 19:06 25.79086 -80.28699 16 ft 7 kts 350°
2026-04-21 19:07 25.79140 -80.28713 16 ft 8 kts 347°
2026-04-21 19:07 25.79194 -80.28704 16 ft 11 kts 26°
2026-04-21 19:07 25.79258 -80.28664 16 ft 9 kts 38°
2026-04-21 19:07 25.79316 -80.28609 16 ft 15 kts 28°
2026-04-21 19:08 25.79424 -80.28600 16 ft 15 kts 357°
2026-04-21 19:08 25.79553 -80.28606 16 ft 22 kts 357°
2026-04-21 19:08 25.79690 -80.28613 16 ft 18 kts 358°
2026-04-21 19:08 25.79804 -80.28626 16 ft 19 kts 348°
2026-04-21 19:09 25.79940 -80.28662 16 ft 3 kts
2026-04-21 19:09 25.79950 -80.28625 16 ft 11 kts 91°
2026-04-21 19:09 25.79951 -80.28499 16 ft 15 kts 88°
2026-04-21 19:09 25.79954 -80.28394 16 ft 13 kts 88°
2026-04-21 19:10 25.79957 -80.28305 16 ft 11 kts 87°
2026-04-21 19:10 25.79963 -80.28172 16 ft 21 kts 89°
2026-04-21 19:10 25.79965 -80.28009 16 ft 20 kts 89°
2026-04-21 19:10 25.79967 -80.27878 16 ft 14 kts 88°
2026-04-21 19:11 25.79972 -80.27791 16 ft 10 kts 87°
2026-04-21 19:11 25.79975 -80.27695 16 ft 15 kts 88°
2026-04-21 19:11 25.79979 -80.27584 16 ft 15 kts 88°
2026-04-21 19:11 25.79983 -80.27454 16 ft 16 kts 88°
2026-04-21 19:12 25.79985 -80.27362 16 ft 5 kts 89°
2026-04-21 19:12 25.79975 -80.27338 16 ft 5 kts 150°
2026-04-21 19:12 25.79933 -80.27330 16 ft 4 kts 179°
2026-04-21 19:12 25.79910 -80.27330 16 ft 0 kts 179°